Hourly Data Report for June 26, 2021

MANIWAKI AIRPORT
QUEBEC
Current Station Operator: ECCC - MSC

46°16'29.000" N
75°59'31.000" W
199.70 m
7034482
71721
WMJ

Download Data

Hourly Data (June 2021)
Hourly Data Report for June 26, 2021
TIME
LST
Temp Definition
°C
Dew Point Definition
°C
Rel Hum Definition
%
Precip. Amount Definition
mm

Wind Dir Definition
10's deg

Wind Spd Definition
km/h
Visibility Definition
km
Stn Press Definition
kPa
Hmdx Definition


Wind Chill Definition


Weather Definition


00:00 18.7 17.5 93 0.0 19 9   99.34     LegendNANA
01:00 18.7 17.8 95 0.2 18 12   99.30     LegendNANA
02:00 18.2 17.6 96 1.2 18 14   99.28     LegendNANA
03:00 17.9 17.2 96 0.6 17 12   99.24     LegendNANA
04:00 17.5 16.8 96 0.5 17 12   99.22     LegendNANA
05:00 17.3 16.6 96 0.5 16 13   99.17     LegendNANA
06:00 17.3 16.5 95 0.3 16 10   99.10     LegendNANA
07:00 17.2 16.5 96 2.3 18 13   99.06     LegendNANA
08:00 17.0 16.5 97 3.9 15 10   99.03     LegendNANA
09:00 17.1 16.6 97 6.2 16 14   98.96     LegendNANA
10:00 17.4 16.8 96 1.5 18 11   98.93     LegendNANA
11:00 17.8 17.3 97 0.8 18 11   98.91     LegendNANA
12:00 18.3 17.8 97 0.5 18 10   98.89     LegendNANA
13:00 19.2 18.5 96 0.2 19 11   98.87     LegendNANA
14:00 20.0 19.2 95 0.0 20 12   98.86 27   LegendNANA
15:00 20.7 19.9 95 0.0 19 10   98.90 28   LegendNANA
16:00 21.7 20.7 94 0.0 19 12   98.92 30   LegendNANA
17:00 22.5 20.7 90 0.0 21 17   98.89 31   LegendNANA
18:00 22.2 20.7 91 0.0 21 12   98.94 30   LegendNANA
19:00 21.5 20.9 96 0.9 20 5   98.95 30   LegendNANA
20:00 21.2 20.6 97 1.6 19 4   98.92 29   LegendNANA
21:00 19.6 19.0 97 5.7 21 7   98.94     LegendNANA
22:00 19.3 19.1 98 3.5 23 1   98.90     LegendNANA
23:00 19.3 19.1 99 0.8 18 4   98.88     LegendNANA

Notes on Data Quality.

Legend

  • E = Estimated
  • M = Missing
  • NA = Not Available*
  • [empty] = Indicates an unobserved value
Date modified: